Weather History for Knoxville, IA

Change the Weather History Date:

Friday, January 3, 2014

  Actual Average Record
Temperature  
Mean Temperature 12 °F -  
Max Temperature 32 °F 32 °F 57 °F (1998)
Min Temperature -9 °F 14 °F -11 °F (1979)
Degree Days  
Heating Degree Days 54    
Moisture  
Dew Point 4 °F    
Average Humidity 66    
Maximum Humidity 78    
Minimum Humidity 57    
Precipitation  
Precipitation 0.00 in - - ()
Sea Level Pressure  
Sea Level Pressure 30.03 in    
Wind  
Wind Speed 11 mph (South)    
Max Wind Speed 26 mph    
Max Gust Speed 36 mph    
Visibility 10 miles    
Events Snow    
Averages and records for this station are not official NWS values.
T = Trace of Precipitation, MM = Missing Value Source: NWS Daily Summary

Daily Weather History Graph

Daily Weather History Graph

Search for Another Location

Airport:

Trip Planner

Search our weather history database for the weather conditions in past years. The results will help you decide how hot, cold, wet, or windy it might be!

Date:

Astronomy

Jan. 03, 2014 Rise Set
Actual Time 7:38 AM CST 4:55 PM CST
Civil Twilight 7:07 AM CST 5:26 PM CST
Nautical Twilight 6:32 AM CST 6:01 PM CST
Astronomical Twilight 5:59 AM CST 6:34 PM CST
Moon 9:03 AM CST (1/3) 8:07 PM CST (1/3)
Length of Visible Light 10h 19m
Length of Day
9h 17m
Waxing Crescent, 8% of the Moon is Illuminated
Jan 3
Waxing Crescent
Jan 7
First Quarter
Jan 15
Full
Jan 23
Last Quarter
Jan 30
New

Hourly Weather History & Observations

Time (CST) Temp. Windchill Dew Point Humidity Pressure Visibility Wind Dir Wind Speed Gust Speed Precip Events Conditions
12:15 AM -7.6 °F -18.8 °F -14.8 °F 71% 30.42 in 10.0 mi West 4.6 mph - N/A   Clear
12:35 AM -7.6 °F -18.8 °F -13.0 °F 77% 30.42 in 10.0 mi West 4.6 mph - N/A   Clear
12:55 AM -7.6 °F -16.5 °F -14.8 °F 71% 30.41 in 10.0 mi WSW 3.5 mph - N/A   Clear
1:15 AM -7.6 °F - -14.8 °F 71% 30.41 in 10.0 mi Calm Calm - N/A   Clear
1:35 AM -9.4 °F -24.3 °F -14.8 °F 77% 30.42 in 10.0 mi West 6.9 mph - N/A   Clear
1:55 AM -9.4 °F -22.7 °F -14.8 °F 77% 30.41 in 10.0 mi SW 5.8 mph - N/A   Clear
2:15 AM -9.4 °F -22.7 °F -14.8 °F 77% 30.40 in 10.0 mi SW 5.8 mph - N/A   Clear
2:35 AM -7.6 °F -16.5 °F -14.8 °F 71% 30.39 in 10.0 mi SSW 3.5 mph - N/A   Clear
2:55 AM -5.8 °F - -13.0 °F 71% 30.39 in 10.0 mi Calm Calm - N/A   Clear
3:15 AM -7.6 °F -18.8 °F -13.0 °F 77% 30.38 in 10.0 mi SE 4.6 mph - N/A   Clear
3:35 AM -7.6 °F -18.8 °F -14.8 °F 71% 30.37 in 10.0 mi SSE 4.6 mph - N/A   Clear
3:55 AM -9.4 °F -24.3 °F -16.6 °F 71% 30.37 in 10.0 mi South 6.9 mph - N/A   Scattered Clouds
4:15 AM -7.6 °F -20.6 °F -14.8 °F 71% 30.36 in 10.0 mi South 5.8 mph - N/A   Overcast
4:35 AM -5.8 °F -19.9 °F -13.0 °F 71% 30.35 in 10.0 mi SE 6.9 mph - N/A   Overcast
4:55 AM -4.0 °F -16.3 °F -11.2 °F 71% 30.34 in 10.0 mi SSE 5.8 mph - N/A   Overcast
5:15 AM -4.0 °F -20.2 °F -11.2 °F 71% 30.32 in 10.0 mi SSE 9.2 mph - N/A   Overcast
5:35 AM -2.2 °F -15.6 °F -9.4 °F 71% 30.32 in 10.0 mi SSE 6.9 mph - N/A   Overcast
5:55 AM -2.2 °F -18.0 °F -7.6 °F 78% 30.30 in 10.0 mi SSE 9.2 mph - N/A   Overcast
6:15 AM -2.2 °F -19.9 °F -7.6 °F 78% 30.29 in 10.0 mi SSE 11.5 mph - N/A   Overcast
6:35 AM -2.2 °F -19.9 °F -9.4 °F 71% 30.29 in 10.0 mi South 11.5 mph - N/A   Scattered Clouds
6:55 AM -2.2 °F -18.9 °F -9.4 °F 71% 30.28 in 10.0 mi SSE 10.4 mph - N/A   Mostly Cloudy
7:15 AM -2.2 °F -16.8 °F -9.4 °F 71% 30.28 in 10.0 mi South 8.1 mph - N/A   Mostly Cloudy
7:35 AM -0.4 °F -16.7 °F -7.6 °F 72% 30.26 in 10.0 mi South 10.4 mph - N/A   Overcast
7:55 AM 1.4 °F -16.1 °F -5.8 °F 72% 30.25 in 10.0 mi South 12.7 mph - N/A   Overcast
8:15 AM 3.2 °F -14.6 °F -5.8 °F 66% 30.22 in 10.0 mi South 13.8 mph 20.7 mph N/A   Overcast
8:35 AM 3.2 °F -15.9 °F -5.8 °F 66% 30.21 in 10.0 mi South 16.1 mph 21.9 mph N/A   Overcast
8:55 AM 5.0 °F -13.6 °F -4.0 °F 66% 30.21 in 10.0 mi South 16.1 mph - N/A   Overcast
9:15 AM 6.8 °F -11.8 °F -4.0 °F 61% 30.20 in 10.0 mi South 17.3 mph 24.2 mph N/A   Overcast
9:35 AM 8.6 °F -8.3 °F -4.0 °F 57% 30.17 in 10.0 mi South 15.0 mph 20.7 mph N/A   Overcast
9:55 AM 8.6 °F -7.7 °F -2.2 °F 62% 30.17 in 10.0 mi South 13.8 mph 21.9 mph N/A   Overcast
10:15 AM 10.4 °F -7.7 °F -0.4 °F 62% 30.16 in 10.0 mi South 18.4 mph - N/A   Overcast
10:35 AM 12.2 °F -3.1 °F -0.4 °F 57% 30.15 in 10.0 mi South 13.8 mph 21.9 mph N/A   Mostly Cloudy
10:55 AM 14.0 °F -3.4 °F 1.4 °F 57% 30.13 in 10.0 mi South 19.6 mph - N/A   Overcast
11:15 AM 14.0 °F -2.5 °F 1.4 °F 57% 30.10 in 10.0 mi South 17.3 mph 25.3 mph N/A   Mostly Cloudy
11:35 AM 15.8 °F -1.9 °F 3.2 °F 58% 30.07 in 10.0 mi South 21.9 mph - N/A   Partly Cloudy
11:55 AM 17.6 °F 1.7 °F 5.0 °F 58% 30.05 in 10.0 mi South 18.4 mph - N/A   Clear
12:15 PM 19.4 °F 5.0 °F 6.8 °F 58% 30.04 in 10.0 mi South 16.1 mph 29.9 mph N/A Snow Light Snow
12:35 PM 19.4 °F 3.2 °F 8.6 °F 63% 30.00 in 10.0 mi South 20.7 mph 27.6 mph N/A   Clear
12:55 PM 21.2 °F 6.8 °F 10.4 °F 63% 29.98 in 10.0 mi South 17.3 mph 28.8 mph N/A   Clear
1:15 PM 23.0 °F 8.3 °F 10.4 °F 59% 29.96 in 10.0 mi South 19.6 mph 29.9 mph N/A   Clear
1:35 PM 23.0 °F 6.3 °F 12.2 °F 63% 29.93 in 10.0 mi South 26.5 mph 34.5 mph N/A Snow Light Snow
1:55 PM 24.8 °F 9.3 °F 12.2 °F 59% 29.90 in 9.0 mi South 24.2 mph 31.1 mph N/A Snow Light Snow
2:15 PM 24.8 °F 10.3 °F 12.2 °F 59% 29.89 in 10.0 mi South 20.7 mph 28.8 mph N/A   Clear
2:35 PM 24.8 °F 9.6 °F 14.0 °F 64% 29.86 in 10.0 mi South 23.0 mph - N/A   Clear
2:55 PM 26.6 °F 12.7 °F 14.0 °F 59% 29.84 in 10.0 mi South 20.7 mph - N/A   Clear
3:15 PM 28.4 °F 14.4 °F 15.8 °F 59% 29.82 in 10.0 mi South 23.0 mph 34.5 mph N/A   Clear
3:35 PM 28.4 °F 15.8 °F 15.8 °F 59% 29.80 in 10.0 mi South 18.4 mph 32.2 mph N/A   Clear
3:55 PM 28.4 °F 14.7 °F 17.6 °F 64% 29.78 in 10.0 mi South 21.9 mph 34.5 mph N/A   Clear
4:15 PM 28.4 °F 15.1 °F 15.8 °F 59% 29.78 in 10.0 mi South 20.7 mph 29.9 mph N/A   Clear
4:35 PM 28.4 °F 15.8 °F 17.6 °F 64% 29.78 in 10.0 mi South 18.4 mph 28.8 mph N/A   Clear
4:55 PM 28.4 °F 15.4 °F 17.6 °F 64% 29.78 in 10.0 mi South 19.6 mph 26.5 mph N/A   Clear
5:15 PM 28.4 °F 15.1 °F 17.6 °F 64% 29.77 in 10.0 mi South 20.7 mph 29.9 mph N/A   Clear
5:35 PM 26.6 °F 13.4 °F 17.6 °F 69% 29.76 in 10.0 mi South 18.4 mph 25.3 mph N/A   Clear
5:55 PM 28.4 °F 16.2 °F 17.6 °F 64% 29.76 in 10.0 mi South 17.3 mph 26.5 mph N/A   Clear
6:15 PM 28.4 °F 15.1 °F 17.6 °F 64% 29.75 in 10.0 mi South 20.7 mph 28.8 mph N/A   Clear
6:35 PM 28.4 °F 14.7 °F 17.6 °F 64% 29.75 in 10.0 mi South 21.9 mph 31.1 mph N/A   Clear
6:55 PM 28.4 °F 15.4 °F 17.6 °F 64% 29.75 in 10.0 mi South 19.6 mph 27.6 mph N/A   Clear
7:15 PM 28.4 °F 14.4 °F 17.6 °F 64% 29.74 in 10.0 mi South 23.0 mph - N/A   Clear
7:35 PM 28.4 °F 15.4 °F 17.6 °F 64% 29.74 in 10.0 mi South 19.6 mph 27.6 mph N/A   Clear
7:55 PM 28.4 °F 15.4 °F 17.6 °F 64% 29.73 in 10.0 mi South 19.6 mph 28.8 mph N/A   Clear
8:15 PM 28.4 °F 15.8 °F 17.6 °F 64% 29.73 in 10.0 mi South 18.4 mph 27.6 mph N/A   Clear
8:35 PM 28.4 °F 15.4 °F 19.4 °F 69% 29.72 in 10.0 mi South 19.6 mph 27.6 mph N/A   Clear
8:55 PM 28.4 °F 15.8 °F 19.4 °F 69% 29.70 in 10.0 mi South 18.4 mph 27.6 mph N/A   Clear
9:15 PM 28.4 °F 15.1 °F 19.4 °F 69% 29.69 in 10.0 mi South 20.7 mph 31.1 mph N/A   Clear
9:35 PM 30.2 °F 16.8 °F 19.4 °F 64% 29.68 in 10.0 mi South 23.0 mph 34.5 mph N/A   Clear
9:55 PM 30.2 °F 16.8 °F 19.4 °F 64% 29.67 in 10.0 mi SSW 23.0 mph 33.4 mph N/A   Clear
10:15 PM 30.2 °F 17.4 °F 19.4 °F 64% 29.67 in 10.0 mi SSW 20.7 mph 35.7 mph N/A   Clear
10:35 PM 30.2 °F 17.4 °F 19.4 °F 64% 29.66 in 10.0 mi SSW 20.7 mph 34.5 mph N/A   Clear
10:55 PM 30.2 °F 17.1 °F 19.4 °F 64% 29.65 in 10.0 mi SSW 21.9 mph 31.1 mph N/A   Clear
11:15 PM 30.2 °F 17.4 °F 19.4 °F 64% 29.66 in 10.0 mi SSW 20.7 mph 28.8 mph N/A   Clear
11:35 PM 32.0 °F 20.1 °F 21.2 °F 64% 29.67 in - SSW 19.6 mph 27.6 mph N/A   Clear
11:55 PM 32.0 °F 19.8 °F 19.4 °F 60% 29.66 in 10.0 mi SSW 20.7 mph 33.4 mph N/A   Clear